Regional Weather Roundup
Issued by NWS

Home | Current Version | Previous Version | Graphics & Text | Print | Product List | Glossary On
Versions: 1 2 3 4 5 6 7 8 9 10 11 12 13 14 15 16 17 18 19 20 21 22 23 24 25 26 27 28 29 30 31 32 33 34 35 36 37 38 39 40 41 42 43 44 45 46 47 48 49 50
491
ASUS43 KOAX 221002
RWRNE

WEATHER ROUNDUP FOR NEBRASKA
NATIONAL WEATHER SERVICE OMAHA NE
500 AM CDT FRI MAY 22 2015

NOTES: SATELLITE DATA IS BEING USED TO AUGMENT CLOUD COVER ABOVE
       12000 FEET.
       "FAIR" INDICATES FEW OR NO CLOUDS BELOW 12,000 FEET WITH NO
       SIGNIFICANT WEATHER AND/OR OBSTRUCTIONS TO VISIBILITY.

  * THESE STATIONS DO NOT REPORT WEATHER SUCH AS RAIN...SNOW OR FOG.

NEZ001>004-019>022-054>056-221100-
NEBRASKA PANHANDLE

CITY           SKY/WX    TMP DP  RH WIND       PRES   REMARKS
SCOTTSBLUFF    CLOUDY    49  45  86 E7        30.08F
ALLIANCE       CLOUDY    49  44  83 SE10      30.09F
CHADRON        CLOUDY    52  43  71 S14       30.09S
KIMBALL          N/A    N/A N/A N/A MISG        N/A
SIDNEY         CLOUDY    47  43  86 SE8       30.09F
$$

NEZ057>060-069>072-079>082-221100-
SOUTHWEST NEBRASKA

CITY           SKY/WX    TMP DP  RH WIND       PRES   REMARKS
NORTH PLATTE   CLOUDY    44  41  89 E6        30.15F
IMPERIAL       CLOUDY    48  43  82 SE8       30.12F
LEXINGTON      CLOUDY    43  41  90 SE5       30.18S
MCCOOK         CLOUDY    48  43  82 SE8       30.15F
$$

NEZ005>010-023>029-035>040-094-221100-
NORTH CENTRAL NEBRASKA

CITY           SKY/WX    TMP DP  RH WIND       PRES   REMARKS
VALENTINE      CLEAR     46  39  76 S10       30.16S
AINSWORTH      CLEAR     41  37  88 S7        30.17S
BROKEN BOW     MOCLDY    42  39  89 NE3       30.17F
O`NEILL        CLEAR     43  35  73 SW5       30.18S
ORD            PTCLDY    37  35  92 SW3       30.19R
$$

NEZ041-046>049-061>064-073>077-083>087-221100-
SOUTH CENTRAL NEBRASKA

CITY           SKY/WX    TMP DP  RH WIND       PRES   REMARKS
GRAND ISLAND   CLOUDY    46  41  82 S3        30.20S
HASTINGS       CLOUDY    46  41  82 CALM      30.19F
KEARNEY *      CLOUDY    45  39  81 CALM      30.20R
$$

NEZ011>018-030>034-042>045-221100-
NORTHEAST NEBRASKA

CITY           SKY/WX    TMP DP  RH WIND       PRES   REMARKS
NORFOLK        CLEAR     43  37  79 CALM      30.19R
BLAIR          CLEAR     49  40  70 CALM      30.20R
COLUMBUS *     PTCLDY    43  36  75 CALM      30.23S
FREMONT        FAIR      47  42  84 CALM      30.20R
TEKAMAH        CLEAR     47  39  74 CALM      30.20R
$$

NEZ050>053-065>068-078-088>093-221100-
SOUTHEAST NEBRASKA

CITY           SKY/WX    TMP DP  RH WIND       PRES   REMARKS
LINCOLN        PTCLDY    48  42  80 CALM      30.22R
OMAHA EPPLEY   PTCLDY    52  44  74 CALM      30.20R
FALLS CITY     PTCLDY    49  44  83 CALM      30.21R
$$

NEZ044-045-051>053-067-221100-
OMAHA AREA

CITY           SKY/WX    TMP DP  RH WIND       PRES   REMARKS
OMAHA EPPLEY   PTCLDY    52  44  74 CALM      30.20R
BLAIR          CLEAR     49  40  70 CALM      30.20R
FREMONT        FAIR      47  42  84 CALM      30.20R
OFFUTT AFB     CLEAR     43  41  94 NE2       30.19R
$$



USA.gov is the U.S. government's official web portal to all federal, state and local government web resources and services.